Вернуться в каталог

COSMOS 2550

АктивенНавигацияVLEO
NORAD 48865·PAYLOAD·🇷🇺 Russia

Запущен Jun 25, 2021 с Plesetsk Cosmodrome

Loading…

Ближайшие Пролёты (ближайшие 24 часа)

TLE

СвежийSource: Space-Track

Эпоха: Sep 14, 2026, 11:43 UTC

1 48865U 21056A   26257.48886660  .00003935  00000-0  12533-3 0  9990
2 48865  67.1433 189.7672 0008351 268.3166  91.7032 15.33842725292416

Отслеживайте COSMOS 2550 в реальном времени с AllMySat

Download on the App Store